Temperature
18 18 18 18 18 18 18 18 18 18 18 18 18 18 18 18 18 18 18 17 17 17 17 17 17 17 17 17 17 17 17 16 16 16 16 16 16 16 16 16 16 15 15
18 18 18 18 18 18 18 18 18 18 18 18 18 18 18 17 17 18 18 17 17 17 17 17 17 17 17 17 17 17 17 17 16 16 16 16 16 16 16 16 16 16 15
18 18 18 18 18 18 18 18 18 18 18 18 18 18 18 17 17 17 17 17 17 17 17 17 17 17 17 17 17 17 17 17 16 16 16 16 16 16 16 16 16 16 15
18 18 18 18 18 18 18 18 18 18 18 18 18 18 18 18 17 17 17 17 17 17 17 17 17 17 17 17 17 17 17 17 16 16 16 16 16 16 16 16 16 16 15
18 18 18 18 18 18 18 18 18 18 18 18 18 18 18 18 18 18 18 17 17 17 17 17 17 17 17 17 17 17 17 17 17 16 16 16 16 16 16 16 16 16 15
18 18 18 18 18 18 18 18 18 18 18 18 18 18 18 18 18 18 18 18 18 17 17 17 17 17 17 17 17 17 17 17 16 16 16 16 16 16 16 16 16 16 15
18 18 18 18 18 18 18 18 17 17 18 17 17 17 18 18 18 18 18 18 18 18 18 17 17 17 17 17 17 17 17 17 17 16 16 16 16 16 16 16 16 16 15
18 18 18 18 18 18 17 17 17 17 18 17 17 17 17 18 18 18 18 18 18 18 18 18 18 17 17 17 17 17 17 17 16 16 16 16 16 16 16 16 16 16 15
18 18 18 17 17 17 17 17 17 17 17 17 17 17 17 17 18 18 18 18 18 18 18 18 18 18 17 17 17 17 17 17 17 16 16 16 16 16 16 16 16 16 15
18 18 18 17 17 17 17 17 17 17 17 17 17 17 17 17 17 17 17 18 18 18 18 18 18 18 17 17 17 17 17 17 17 16 16 16 16 16 16 16 16 16 15
18 18 18 18 17 17 17 17 17 17 17 17 17 17 17 17 17 17 17 17 17 18 18 17 17 17 17 17 17 17 17 17 17 16 16 16 16 16 16 16 15 15 15
18 18 18 17 17 17 17 17 17 17 17 17 17 17 17 17 17 17 16 17 17 17 17 17 17 17 17 17 17 17 17 17 17 16 16 16 16 16 15 15 15 15 15
18 18 17 17 17 17 17 17 17 17 17 17 17 17 17 17 16 16 16 16 16 16 16 17 17 17 17 17 17 16 16 16 16 16 16 16 16 15 15 15 15 15 15
18 17 17 17 17 17 17 17 17 17 17 17 17 16 16 16 16 16 16 16 16 16 16 16 16 16 16 16 16 16 16 16 16 16 16 15 15 15 15 15 15 15 15
17 17 17 17 17 17 17 17 17 17 17 17 16 16 16 16 16 16 16 16 16 15 15 15 15 15 15 15 15 15 15 15 15 15 15 15 15 15 15 15 14 14 14
17 17 17 17 17 17 17 17 16 16 16 16 16 16 16 16 16 16 16 16 15 15 15 15 15 15 15 15 15 15 15 15 14 14 15 14 14 14 14 14 14 14 14
17 17 17 17 16 16 16 16 16 16 16 16 16 16 16 16 16 16 15 15 15 15 15 15 14 14 14 14 14 14 14 14 14 14 14 14 14 14 14 14 13 13 13
17 17 17 16 16 16 16 16 16 16 16 16 16 15 15 15 15 15 15 15 15 15 14 14 14 14 14 13 13 13 13 13 13 13 13 13 13 13 13 13 13 13 13
17 16 16 16 16 16 16 16 16 15 15 15 15 15 15 15 15 15 15 15 14 14 14 14 13 13 13 13 13 13 13 12 12 12 12 12 12 12 12 12 12 12 12
16 16 16 16 16 16 16 15 15 15 15 15 15 15 15 15 15 15 14 14 14 14 14 13 13 13 12 12 12 12 12 12 12 12 12 12 11 11 11 11 11 11 11
16 16 16 15 15 15 15 15 15 15 15 15 14 14 14 14 14 14 14 14 14 13 13 13 12 12 12 12 12 11 11 11 11 11 11 11 11 11 11 10 10 10 10
16 15 15 15 15 15 14 15 15 14 14 14 14 14 14 14 13 13 13 13 13 13 13 12 12 11 11 11 11 11 11 11 10 10 10 10 10 10 10 10 10 10 10
15 15 15 15 14 14 14 14 14 14 14 14 13 13 13 13 13 13 13 12 12 12 12 12 11 11 11 11 11 11 10 10 10 10 10 10 10 9 9 9 9 9 9
15 14 14 14 14 14 13 13 13 13 13 13 13 13 13 12 12 12 12 12 12 11 11 11 11 11 10 10 10 10 10 10 10 9 9 9 9 9 9 8 8 8 8
14 14 14 13 13 13 13 13 13 13 13 12 12 12 12 12 11 11 11 11 11 11 10 10 10 10 10 10 10 10 10 10 9 9 9 9 8 8 8 8 8 8 8
14 14 13 13 13 13 13 12 12 12 12 12 12 11 11 11 11 11 11 11 11 10 10 10 10 10 10 10 9 9 9 9 9 9 8 8 8 8 8 7 7 7 7
Wind_Speed
2 2 2 2 2 2 1 1 1 1 1 2 2 3 4 4 5 6 7 10 11 12 12 12 12 12 12 12 11 11 11 11 11 11 11 10 10 10 11 10 10 10 10
4 3 3 3 4 4 3 3 2 2 2 2 2 3 4 5 6 8 8 9 12 13 13 14 14 14 14 14 13 13 13 13 13 13 12 12 12 12 12 12 11 11 11
7 5 3 3 5 5 4 3 2 2 2 2 3 3 4 6 7 8 9 9 10 13 14 15 15 15 15 15 15 15 14 15 14 14 14 14 13 13 14 13 13 13 13
9 7 4 5 6 5 3 2 2 2 3 3 3 3 3 5 7 8 9 9 9 10 13 16 17 17 17 16 16 16 16 17 16 16 15 15 15 15 16 15 15 15 15
9 8 5 6 6 4 3 3 3 3 3 4 4 4 4 5 6 7 8 10 10 11 11 13 17 18 18 18 18 18 18 18 18 17 17 17 17 17 17 17 17 17 16
8 7 5 6 5 3 3 3 3 3 3 3 3 4 4 5 5 6 7 8 10 12 12 12 12 14 17 19 18 18 18 18 19 19 19 19 18 18 18 18 18 18 17
5 5 4 4 4 4 5 4 3 3 3 2 1 2 3 3 5 5 6 6 8 10 11 12 11 11 11 15 18 18 18 19 19 19 20 20 20 20 20 20 20 20 19
5 5 4 4 4 4 4 4 4 3 3 3 3 1 2 3 2 4 4 5 7 7 8 10 10 11 12 10 12 15 18 18 18 18 19 20 20 20 21 21 20 20 20
4 4 4 4 4 4 5 5 5 5 4 3 3 3 3 3 2 2 2 3 4 4 5 7 9 10 11 10 10 12 14 15 16 16 16 16 17 18 18 18 18 18 18
3 5 5 5 4 4 5 5 5 5 4 4 3 3 3 3 2 2 2 1 2 3 4 5 6 7 9 9 10 11 12 13 14 14 14 14 14 15 16 17 17 17 17
3 4 4 4 4 4 5 5 4 5 5 5 4 3 3 2 3 3 3 2 2 2 3 3 4 4 6 7 7 8 10 11 11 12 12 12 12 13 13 14 14 14 14
3 3 3 3 3 3 4 4 4 4 4 4 4 3 3 2 3 4 4 3 3 3 2 2 2 3 3 4 5 6 7 8 9 10 10 10 10 11 11 12 11 11 11
2 3 2 2 2 3 3 3 3 4 4 4 4 3 3 3 2 3 3 3 3 2 1 1 1 2 2 2 2 3 4 5 6 6 7 7 8 8 9 9 9 9 10
3 2 2 2 2 2 2 2 2 3 2 3 3 3 2 3 2 3 3 3 3 2 1 2 1 1 1 1 0 1 1 0 2 3 3 4 4 6 6 7 7 8 9
1 1 1 1 2 2 1 1 0 0 1 2 2 2 2 2 2 2 2 3 3 3 3 1 1 1 2 1 2 2 2 4 3 2 1 0 1 2 3 4 4 5 6
1 2 2 2 3 3 3 2 2 1 1 0 1 1 1 1 1 1 2 2 2 3 3 1 1 1 1 2 4 3 4 6 7 6 5 4 3 3 2 1 0 1 1
2 2 2 2 3 3 3 3 2 2 2 2 1 1 1 0 0 0 0 0 0 1 2 1 1 1 2 3 4 5 5 5 6 8 7 7 6 6 5 5 3 3 3
2 2 2 3 3 3 3 3 3 3 3 3 3 3 2 2 3 2 2 1 1 1 1 0 1 2 2 3 3 4 5 6 7 9 10 10 10 10 10 9 9 8 7
3 3 3 3 3 3 3 4 4 4 4 4 4 4 4 4 4 3 3 2 2 2 2 2 2 2 2 3 3 4 5 5 7 9 10 11 12 13 13 12 12 11 11
3 3 3 3 3 4 4 4 5 5 5 5 5 5 5 4 4 4 4 4 3 4 4 3 3 2 2 2 3 3 4 5 5 8 10 10 12 14 14 14 13 12 12
5 4 5 5 5 5 5 6 6 7 6 7 7 7 7 8 8 6 5 4 5 4 4 4 3 3 3 2 2 2 3 4 5 5 5 7 8 9 10 12 12 12 12
5 6 6 6 7 6 9 10 8 7 7 8 8 7 8 9 10 11 11 10 7 5 4 4 3 3 2 2 2 2 2 2 2 4 3 5 5 6 7 9 10 11 12
6 7 7 7 7 8 10 11 12 9 8 8 7 7 7 8 8 8 11 12 12 11 7 4 4 3 2 2 2 3 3 3 2 2 2 3 4 5 6 8 10 10 10
6 6 7 7 7 8 10 11 12 10 9 8 8 8 8 8 8 8 9 10 9 9 8 6 5 4 4 3 3 3 3 3 3 3 2 2 2 3 4 6 9 9 9
6 6 6 6 7 7 8 10 10 8 8 9 8 8 8 8 9 10 9 9 9 8 11 14 13 12 11 10 6 4 4 4 3 3 3 2 1 1 2 3 6 8 9
6 6 7 6 7 6 8 9 8 7 7 7 7 8 10 10 10 10 8 8 8 6 6 8 10 11 11 12 11 6 3 3 2 2 3 2 1 1 1 2 3 5 5
Wind_Direction
206 209 237 241 246 243 235 254 261 267 279 266 234 219 222 218 210 212 215 214 211 210 210 209 209 208 207 206 207 207 206 206 205 204 205 205 205 204 202 202 204 205 204
210 213 228 242 246 242 240 242 240 241 261 260 255 237 231 224 219 217 221 221 219 217 218 217 216 216 216 216 217 217 215 215 215 214 213 213 213 212 211 211 212 213 212
212 211 217 234 241 240 241 248 255 250 251 251 256 246 235 230 227 226 225 224 226 225 224 224 223 222 223 223 223 223 221 221 221 220 218 218 219 219 218 218 218 219 218
217 212 216 231 235 225 220 222 234 246 256 248 249 249 240 238 237 234 231 229 229 232 233 232 230 229 229 229 229 228 226 225 225 224 222 222 223 224 224 223 223 224 223
220 214 220 230 225 215 214 224 214 214 241 248 249 250 246 241 242 241 236 233 231 232 236 240 238 235 234 235 236 235 232 229 228 226 226 226 227 227 227 226 227 227 228
219 215 223 229 220 216 222 220 221 215 225 236 257 263 258 249 244 242 242 240 236 236 236 238 241 244 242 241 241 240 238 236 232 230 230 231 231 231 230 229 229 229 230
218 213 232 232 221 222 224 218 215 221 231 205 208 288 289 258 245 243 240 239 239 237 235 235 236 239 247 247 245 243 244 242 237 234 233 233 233 233 233 233 233 232 232
222 221 221 234 230 227 234 227 214 214 224 189 179 190 304 316 283 248 236 235 240 236 236 236 232 234 238 241 246 246 247 247 245 242 238 235 234 235 235 236 236 236 235
236 230 231 233 232 225 231 229 217 213 225 217 194 179 194 237 289 301 257 242 240 234 239 240 236 235 234 235 242 247 247 248 246 245 242 236 232 232 232 233 235 236 236
245 236 236 234 236 233 234 236 222 216 212 225 217 217 214 187 203 293 312 294 267 250 247 247 247 241 235 232 236 240 245 247 247 244 242 239 234 229 230 234 236 239 239
267 253 245 241 239 238 236 236 227 218 215 216 212 207 217 216 211 223 270 292 305 278 262 254 251 253 248 238 238 242 243 244 244 242 242 241 237 233 231 233 237 240 241
287 279 267 253 248 244 238 233 225 223 224 222 219 207 197 201 206 211 236 259 278 285 288 280 269 263 255 244 239 239 239 241 243 243 244 244 242 236 231 233 236 239 242
293 292 290 277 266 253 244 232 224 229 220 217 220 223 224 229 210 206 217 244 259 278 295 319 294 294 270 249 238 234 234 234 237 238 237 237 236 235 233 233 236 238 242
277 295 304 305 303 295 269 225 228 236 217 221 226 218 223 236 223 210 206 212 246 260 254 278 331 338 323 301 294 145 104 180 210 216 221 230 237 240 241 240 243 243 243
296 335 357 7 11 23 35 70 67 234 201 220 223 211 225 247 234 234 223 211 215 241 263 265 290 358 20 55 36 67 74 65 68 73 94 219 253 255 246 241 244 245 244
20 43 41 38 40 48 49 68 71 70 91 93 169 160 229 277 246 231 216 221 216 222 246 285 261 345 42 53 50 66 71 65 56 60 69 75 73 61 44 28 64 158 223
45 45 48 48 45 50 56 66 62 65 71 52 45 81 43 348 68 82 116 112 144 168 218 304 6 24 46 59 53 59 61 58 54 55 61 65 68 68 66 61 63 80 86
55 56 57 57 52 51 57 69 64 58 58 51 46 58 51 54 54 59 75 78 81 103 150 149 19 31 49 58 62 59 58 63 62 56 59 61 64 67 67 63 65 68 71
49 47 56 59 53 54 63 69 75 68 60 53 52 55 53 62 55 54 64 71 76 83 97 113 61 33 47 50 56 60 58 54 60 54 56 60 64 65 66 66 67 67 67
57 50 53 57 56 61 66 69 75 74 68 58 53 55 55 62 64 67 70 71 80 82 85 91 78 54 46 43 59 64 59 50 50 48 50 55 58 60 59 61 64 66 67
66 62 61 58 58 67 67 74 76 76 70 63 55 54 58 64 66 68 74 75 82 86 85 83 74 58 47 48 51 52 78 67 51 41 47 44 48 51 52 55 60 65 69
65 64 64 64 62 68 73 77 82 75 69 66 60 53 55 57 62 65 68 68 75 89 92 84 76 74 48 38 46 71 83 76 60 21 46 47 46 49 45 52 56 65 67
74 70 66 68 68 66 74 79 79 82 74 67 62 58 58 52 59 67 65 62 60 63 72 91 87 68 54 30 68 73 73 74 73 23 50 56 43 52 46 45 50 60 64
80 79 73 72 75 69 76 81 81 77 71 61 57 59 64 56 60 70 73 66 58 51 52 62 69 58 57 62 74 85 96 89 76 41 37 67 49 49 41 41 46 57 60
83 79 80 80 79 68 71 83 86 82 75 64 55 56 62 62 56 67 76 73 64 53 56 64 65 61 58 59 71 83 80 84 70 38 25 57 61 45 40 39 41 53 60
94 91 81 74 77 73 70 80 89 91 84 75 62 54 56 64 61 66 75 77 73 56 56 57 53 51 53 52 52 56 69 79 72 48 21 35 42 31 45 33 24 31 45
Height
1566 1567 1568 1568 1568 1569 1569 1570 1571 1571 1572 1572 1573 1573 1574 1574 1574 1575 1575 1575 1575 1576 1576 1577 1577 1578 1579 1580 1581 1582 1582 1583 1584 1585 1586 1587 1588 1589 1590 1591 1592 1593 1593
1567 1567 1567 1568 1569 1569 1570 1570 1571 1571 1572 1572 1573 1573 1573 1573 1574 1574 1574 1575 1575 1575 1576 1576 1577 1577 1578 1579 1579 1580 1581 1582 1583 1584 1585 1586 1587 1588 1589 1589 1590 1591 1592
1566 1567 1567 1567 1568 1569 1569 1570 1570 1571 1571 1571 1572 1572 1573 1573 1573 1573 1573 1574 1574 1574 1575 1575 1576 1576 1577 1577 1578 1578 1579 1580 1581 1582 1583 1584 1585 1586 1587 1587 1588 1589 1590
1565 1566 1566 1566 1567 1568 1568 1568 1569 1569 1570 1570 1571 1571 1571 1572 1572 1572 1572 1572 1573 1573 1573 1574 1574 1575 1575 1576 1576 1577 1577 1578 1579 1580 1581 1581 1582 1583 1584 1585 1586 1587 1588
1564 1564 1565 1565 1566 1566 1566 1567 1567 1568 1568 1569 1569 1569 1570 1570 1570 1570 1570 1570 1570 1571 1571 1572 1572 1573 1573 1574 1574 1574 1575 1576 1576 1577 1578 1579 1580 1580 1581 1582 1583 1584 1585
1562 1563 1563 1563 1563 1564 1564 1564 1565 1566 1566 1567 1567 1567 1567 1567 1567 1567 1567 1568 1568 1568 1569 1569 1570 1570 1571 1571 1571 1572 1572 1573 1573 1574 1575 1575 1576 1577 1578 1579 1580 1581 1581
1560 1561 1560 1561 1561 1561 1561 1562 1562 1563 1563 1564 1564 1564 1564 1564 1564 1564 1565 1565 1565 1566 1566 1566 1567 1567 1568 1568 1568 1569 1569 1569 1570 1570 1571 1571 1572 1573 1574 1575 1576 1577 1577
1558 1558 1558 1558 1558 1558 1558 1559 1559 1560 1560 1561 1562 1562 1562 1562 1561 1561 1562 1562 1562 1563 1563 1563 1564 1564 1564 1565 1565 1565 1566 1566 1566 1566 1567 1567 1568 1568 1569 1570 1571 1572 1572
1556 1555 1555 1554 1554 1554 1555 1555 1556 1557 1557 1558 1558 1560 1559 1558 1558 1558 1558 1559 1559 1560 1560 1560 1561 1561 1561 1561 1561 1562 1562 1562 1562 1562 1563 1563 1563 1564 1564 1565 1566 1567 1568
1553 1552 1552 1551 1551 1551 1551 1552 1552 1553 1554 1554 1555 1556 1557 1557 1557 1556 1556 1556 1556 1557 1557 1557 1557 1557 1557 1557 1557 1557 1558 1558 1558 1558 1558 1559 1559 1559 1560 1560 1561 1562 1562
1550 1550 1549 1548 1548 1547 1547 1548 1548 1549 1550 1550 1551 1552 1552 1553 1554 1554 1552 1553 1553 1553 1554 1553 1553 1553 1553 1553 1553 1553 1554 1554 1554 1554 1554 1554 1555 1555 1555 1555 1556 1557 1557
1548 1547 1546 1545 1545 1544 1544 1544 1544 1545 1546 1546 1547 1548 1549 1549 1549 1550 1549 1548 1549 1549 1549 1549 1550 1549 1549 1549 1549 1549 1549 1550 1550 1550 1550 1550 1550 1550 1551 1551 1551 1552 1552
1545 1544 1544 1543 1542 1542 1541 1541 1541 1541 1542 1542 1543 1544 1545 1545 1546 1546 1546 1546 1546 1546 1546 1546 1546 1546 1546 1546 1546 1545 1546 1546 1546 1546 1546 1546 1546 1546 1547 1547 1547 1547 1547
1543 1543 1542 1541 1540 1539 1539 1539 1538 1538 1539 1539 1540 1540 1541 1541 1542 1542 1543 1543 1542 1543 1542 1543 1543 1543 1543 1542 1542 1542 1542 1542 1542 1542 1542 1542 1542 1542 1542 1542 1543 1543 1543
1542 1541 1540 1539 1538 1538 1537 1537 1536 1536 1536 1536 1537 1537 1537 1538 1538 1539 1539 1540 1540 1539 1539 1539 1540 1539 1539 1539 1539 1539 1539 1539 1539 1538 1538 1538 1538 1538 1538 1538 1538 1538 1539
1540 1540 1539 1538 1537 1536 1536 1535 1535 1535 1535 1534 1534 1534 1535 1535 1535 1535 1536 1536 1536 1537 1536 1536 1536 1536 1536 1536 1536 1536 1536 1536 1536 1535 1535 1535 1535 1535 1534 1534 1534 1534 1534
1539 1538 1537 1536 1536 1535 1534 1534 1534 1534 1533 1533 1532 1532 1532 1532 1532 1532 1533 1533 1533 1534 1533 1533 1534 1534 1533 1533 1533 1533 1533 1533 1533 1533 1532 1532 1532 1531 1531 1531 1530 1530 1530
1537 1537 1536 1535 1534 1534 1533 1533 1533 1533 1532 1531 1531 1531 1530 1530 1530 1530 1530 1531 1531 1531 1531 1531 1531 1531 1531 1531 1531 1531 1531 1531 1531 1531 1530 1530 1529 1529 1528 1528 1528 1527 1527
1536 1536 1535 1534 1534 1533 1533 1532 1532 1532 1532 1531 1531 1530 1530 1529 1529 1529 1529 1529 1530 1530 1530 1530 1530 1530 1529 1530 1529 1530 1530 1530 1530 1529 1529 1528 1528 1527 1527 1526 1526 1525 1525
1536 1535 1534 1534 1533 1533 1533 1532 1532 1532 1532 1531 1531 1530 1529 1529 1529 1528 1528 1528 1529 1529 1529 1529 1529 1529 1529 1529 1529 1528 1528 1529 1529 1529 1528 1528 1527 1527 1526 1526 1525 1524 1524
1536 1535 1534 1534 1534 1533 1533 1533 1533 1533 1532 1532 1531 1530 1530 1529 1529 1529 1528 1528 1529 1529 1529 1529 1529 1529 1528 1528 1529 1529 1528 1529 1529 1529 1529 1528 1528 1527 1526 1525 1525 1524 1523
1536 1536 1535 1535 1534 1534 1534 1534 1534 1534 1533 1533 1532 1532 1531 1531 1530 1530 1529 1529 1529 1529 1529 1529 1529 1529 1529 1530 1530 1529 1529 1529 1529 1530 1529 1529 1528 1527 1527 1526 1525 1524 1523
1536 1536 1536 1536 1536 1536 1536 1536 1535 1535 1534 1534 1534 1533 1533 1533 1532 1532 1531 1531 1530 1530 1530 1531 1530 1530 1530 1530 1530 1530 1530 1530 1530 1530 1530 1529 1529 1528 1528 1527 1526 1525 1524
1537 1536 1537 1537 1537 1537 1537 1537 1537 1537 1536 1536 1536 1535 1535 1535 1535 1534 1534 1533 1532 1532 1532 1532 1532 1532 1532 1532 1531 1531 1531 1531 1531 1531 1530 1530 1530 1529 1529 1528 1527 1526 1525
1538 1538 1538 1539 1539 1539 1539 1539 1539 1538 1538 1538 1538 1538 1538 1537 1537 1537 1536 1535 1535 1535 1535 1535 1534 1534 1534 1533 1533 1532 1532 1531 1531 1531 1531 1531 1530 1529 1529 1528 1527 1526 1525
1539 1539 1539 1540 1540 1540 1541 1541 1541 1541 1540 1540 1540 1540 1540 1540 1540 1539 1539 1538 1537 1537 1537 1537 1537 1536 1536 1535 1535 1534 1533 1533 1532 1532 1532 1531 1531 1530 1529 1529 1528 1526 1525